Vorticity
10 6 7 9 10 9 2 8 10 7 9 8 10 8 10 9 7 6 6 4 6 6 5 4 3 5 6 7 6 5 6 6
3 7 3 5 7 7 13 6 10 11 3 5 7 6 7 9 10 7 7 6 5 6 5 5 6 3 5 4 4 6 5 5
6 7 7 7 4 -2 6 8 8 9 12 6 5 8 7 6 6 9 7 9 11 8 5 5 6 5 7 5 3 4 4 4
5 7 8 7 6 7 6 4 3 7 10 12 11 10 7 7 4 6 6 6 7 8 7 5 5 6 6 5 5 4 4 3
7 4 3 5 5 5 6 6 7 5 1 4 5 12 9 4 6 6 5 5 5 7 7 7 6 5 5 5 6 5 6 5
9 11 8 6 4 5 8 10 9 10 9 6 5 5 8 9 4 4 4 5 5 4 5 4 4 4 5 5 5 4 4 4
4 7 3 4 4 3 2 1 4 6 8 6 3 5 6 7 6 4 3 3 4 4 4 4 4 3 4 4 5 4 6 4
15 18 17 13 11 12 13 10 8 7 4 6 9 6 4 11 5 4 3 4 3 6 6 5 4 3 2 4 4 4 4 5
12 7 -7 -8 1 7 5 7 7 7 7 10 6 6 9 6 9 6 4 4 6 1 3 2 3 6 5 2 2 2 2 2
-1 -6 -0 -2 6 12 1 3 5 5 5 4 3 5 8 7 10 9 8 5 5 13 18 8 7 10 16 2 2 2 5 9
12 14 13 7 10 12 6 6 3 1 2 3 1 1 6 6 2 3 4 5 5 6 11 12 17 2 20 21 22 12 9 16
-5 3 13 10 12 7 4 17 13 16 16 11 10 13 12 9 7 6 4 7 4 -2 8 -5 -4 17 -1 -16 -14 -6 23 25
4 22 4 5 20 -4 4 10 -1 19 8 13 18 16 17 13 16 13 13 9 5 15 3 7 16 1 9 13 -1 40 3 12
17 3 1 8 11 15 7 8 21 -1 -8 12 -2 7 11 15 11 1 9 15 13 16 15 5 14 13 8 -8 5 13 3 26
17 -3 14 6 1 16 -1 -1 19 -2 9 3 -3 23 8 24 3 -4 17 15 18 22 21 -7 13 14 -2 1 22 -2 -11 5
9 15 -3 -24 8 5 -20 1 3 3 -4 5 15 1 22 16 22 13 16 20 13 5 23 30 10 7 21 25 5 -1 15 4
4 16 -1 5 0 2 7 -3 6 8 15 11 24 -3 23 11 18 9 19 -0 -12 10 3 18 13 13 14 7 8 -6 21 5
26 27 9 14 12 10 6 10 15 14 13 2 10 2 9 24 16 -3 6 15 12 -4 14 11 18 6 30 32 25 29 52 29
20 17 25 27 11 17 8 11 25 1 -13 13 23 13 6 11 20 17 31 12 17 7 5 9 9 20 -0 42 12 33 41 -16
Height
5730 5732 5736 5737 5739 5742 5745 5746 5750 5752 5753 5755 5759 5762 5765 5768 5771 5774 5777 5780 5783 5785 5787 5788 5791 5795 5798 5800 5801 5802 5803 5805
5720 5723 5726 5729 5730 5733 5737 5738 5742 5742 5744 5748 5752 5756 5759 5761 5764 5766 5768 5771 5774 5777 5780 5781 5784 5787 5791 5792 5793 5795 5796 5798
5709 5711 5716 5720 5724 5726 5728 5732 5733 5734 5736 5740 5742 5746 5748 5750 5752 5755 5759 5764 5768 5769 5771 5773 5776 5779 5782 5785 5786 5787 5789 5790
5699 5703 5707 5709 5713 5716 5719 5722 5724 5726 5728 5729 5731 5734 5736 5740 5745 5751 5756 5758 5761 5763 5763 5764 5766 5770 5773 5775 5778 5780 5781 5781
5689 5693 5696 5699 5702 5706 5709 5711 5714 5716 5718 5720 5723 5727 5730 5735 5739 5741 5743 5746 5749 5752 5754 5755 5757 5760 5762 5767 5769 5771 5773 5773
5678 5680 5684 5687 5690 5694 5697 5700 5703 5706 5708 5710 5713 5716 5721 5725 5727 5729 5732 5737 5739 5741 5744 5746 5747 5749 5752 5754 5757 5761 5764 5763
5665 5667 5670 5674 5677 5679 5683 5687 5690 5693 5697 5700 5702 5705 5710 5712 5716 5719 5723 5726 5728 5731 5733 5736 5739 5741 5743 5745 5747 5749 5752 5754
5652 5655 5656 5658 5662 5665 5669 5673 5676 5680 5683 5687 5692 5695 5697 5701 5705 5708 5710 5714 5717 5720 5723 5726 5728 5731 5732 5733 5734 5735 5739 5741
5638 5641 5644 5647 5650 5651 5654 5658 5662 5666 5669 5673 5677 5682 5685 5688 5690 5693 5698 5702 5705 5707 5709 5711 5713 5716 5717 5720 5722 5723 5725 5728
5623 5625 5628 5633 5635 5639 5642 5644 5647 5649 5654 5659 5663 5666 5672 5676 5678 5681 5685 5688 5690 5694 5697 5699 5699 5701 5703 5705 5706 5710 5711 5713
5606 5609 5611 5614 5618 5623 5626 5629 5632 5635 5637 5642 5647 5651 5655 5660 5663 5667 5671 5675 5677 5681 5685 5687 5688 5689 5688 5689 5690 5691 5692 5693
5587 5592 5594 5597 5600 5605 5611 5614 5617 5621 5624 5626 5629 5635 5639 5643 5648 5653 5657 5660 5664 5668 5672 5673 5672 5674 5676 5677 5678 5678 5678 5676
5567 5571 5575 5578 5584 5590 5595 5600 5603 5606 5609 5612 5615 5618 5620 5625 5631 5635 5639 5643 5647 5653 5655 5656 5658 5660 5658 5658 5659 5663 5665 5670
5548 5553 5557 5560 5565 5570 5579 5584 5588 5590 5594 5599 5601 5603 5605 5609 5613 5617 5620 5623 5627 5632 5636 5638 5640 5644 5643 5642 5643 5645 5650 5654
5531 5537 5540 5543 5547 5551 5558 5565 5570 5573 5577 5581 5584 5587 5591 5594 5597 5599 5602 5605 5608 5613 5617 5621 5623 5626 5628 5628 5630 5630 5636 5638
5513 5520 5523 5528 5535 5538 5540 5544 5550 5556 5559 5564 5567 5570 5573 5578 5580 5583 5585 5589 5592 5596 5601 5605 5606 5609 5613 5591 5612 5619 5621 5625
5494 5501 5509 5514 5519 5522 5527 5529 5533 5535 5537 5542 5547 5552 5557 5561 5566 5567 5571 5575 5577 5579 5581 5585 5589 5591 5594 5598 5598 5602 5604 5608
5475 5480 5487 5493 5498 5502 5506 5510 5514 5518 5522 5525 5528 5531 5536 5545 5550 5552 5555 5558 5561 5562 5564 5567 5571 5574 5571 5579 5584 5583 5585 5591
5458 5463 5466 5471 5473 5479 5484 5491 5497 5500 5504 5509 5513 5515 5517 5522 5527 5533 5537 5540 5543 5546 5546 5549 5554 5554 5558 5560 5564 5567 5568 5571